When you browse on this site, cookies collect data to enhance your experience and personalize the content and advertising you see.
Visit our Privacy Policy to learn more. By continuing to use the site, you agree to this use of cookies and data.
  • Em Portugal
  • Lista de países
  • Para 7 dias
  • Temperatura da água
  • Mapas de satélite
  • Mapa do tempo
  • Widgets de tempo
  • user-avatar
    Iniciar Sessão

    Previsão horária em Varna

    Hoje, 22 Julho, Segunda-feira

    Tempo Temperatura Precipitação Vento Pressão Humidade
    00:00 +22°C° 0 mm 1 m/s 749 mmHg 59%
    01:00 +22°C° 0 mm 1 m/s 749 mmHg 56%
    02:00 +22°C° 0 mm 1 m/s 749 mmHg 54%
    03:00 +22°C° 0 mm 1 m/s 748 mmHg 54%
    04:00 +22°C° 0 mm 1 m/s 748 mmHg 54%
    05:00 +21°C° 0 mm 2 m/s 748 mmHg 54%
    06:00 +24°C° 0 mm 1 m/s 748 mmHg 50%
    07:00 +27°C° 0 mm 1 m/s 749 mmHg 46%
    08:00 +29°C° 0 mm 1 m/s 749 mmHg 42%
    09:00 +30°C° 0 mm 1 m/s 749 mmHg 38%
    10:00 +31°C° 0 mm 2 m/s 749 mmHg 35%
    11:00 +34°C° 0 mm 2 m/s 749 mmHg 32%
    12:00 +33°C° 0 mm 3 m/s 749 mmHg 32%
    13:00 +33°C° 0 mm 3 m/s 748 mmHg 32%
    14:00 +33°C° 0 mm 4 m/s 748 mmHg 32%
    15:00 +33°C° 0 mm 4 m/s 748 mmHg 33%
    16:00 +33°C° 0 mm 3 m/s 747 mmHg 33%
    17:00 +31°C° 0 mm 3 m/s 747 mmHg 34%
    18:00 +29°C° 0 mm 3 m/s 747 mmHg 39%
    19:00 +27°C° 0 mm 2 m/s 747 mmHg 43%
    20:00 +25°C° 0 mm 2 m/s 747 mmHg 48%
    21:00 +25°C° 0 mm 2 m/s 747 mmHg 48%
    22:00 +24°C° 0 mm 1 m/s 747 mmHg 48%
    23:00 +24°C° 0 mm 1 m/s 747 mmHg 48%

    Amanhã, 23 Julho, Terça-feira

    Tempo Temperatura Precipitação Vento Pressão Humidade
    00:00 +24°C° 0 mm 1 m/s 746 mmHg 50%
    01:00 +24°C° 0 mm 2 m/s 746 mmHg 51%
    02:00 +24°C° 0 mm 2 m/s 746 mmHg 52%
    03:00 +23°C° 0.1 mm 2 m/s 746 mmHg 62%
    04:00 +21°C° 0.1 mm 2 m/s 746 mmHg 72%
    05:00 +20°C° 0.1 mm 2 m/s 746 mmHg 81%
    06:00 +21°C° 0.2 mm 3 m/s 746 mmHg 79%
    07:00 +22°C° 0.2 mm 3 m/s 746 mmHg 78%
    08:00 +23°C° 0.2 mm 4 m/s 746 mmHg 76%
    09:00 +26°C° 0 mm 4 m/s 746 mmHg 67%
    10:00 +28°C° 0 mm 4 m/s 746 mmHg 59%
    11:00 +30°C° 0 mm 4 m/s 746 mmHg 50%
    12:00 +30°C° 0.5 mm 4 m/s 745 mmHg 52%
    13:00 +29°C° 0.5 mm 4 m/s 745 mmHg 54%
    14:00 +29°C° 0.5 mm 4 m/s 745 mmHg 56%
    15:00 +28°C° 2 mm 5 m/s 745 mmHg 61%
    16:00 +27°C° 2 mm 5 m/s 745 mmHg 67%
    17:00 +26°C° 2 mm 6 m/s 745 mmHg 73%
    18:00 +24°C° 0.8 mm 6 m/s 745 mmHg 75%
    19:00 +23°C° 0.8 mm 5 m/s 745 mmHg 77%
    20:00 +22°C° 0.8 mm 5 m/s 745 mmHg 80%
    21:00 +21°C° 0.3 mm 4 m/s 745 mmHg 81%
    22:00 +21°C° 0.3 mm 4 m/s 745 mmHg 82%
    23:00 +20°C° 0.3 mm 3 m/s 746 mmHg 83%

    Depois de amanhã, 24 Julho, Quarta-feira

    Tempo Temperatura Precipitação Vento Pressão Humidade
    00:00 +20°C° 0.1 mm 4 m/s 745 mmHg 81%
    01:00 +19°C° 0.1 mm 4 m/s 745 mmHg 79%
    02:00 +19°C° 0.1 mm 5 m/s 745 mmHg 77%
    03:00 +17°C° 0 mm 5 m/s 745 mmHg 78%
    04:00 +17°C° 0 mm 5 m/s 745 mmHg 80%
    05:00 +16°C° 0 mm 6 m/s 745 mmHg 82%
    06:00 +19°C° 0 mm 6 m/s 746 mmHg 74%
    07:00 +20°C° 0 mm 6 m/s 746 mmHg 66%
    08:00 +22°C° 0 mm 7 m/s 746 mmHg 59%
    09:00 +23°C° 0 mm 6 m/s 746 mmHg 51%
    10:00 +26°C° 0 mm 6 m/s 746 mmHg 43%
    11:00 +28°C° 0 mm 5 m/s 747 mmHg 35%
    12:00 +28°C° 0 mm 5 m/s 746 mmHg 34%
    13:00 +29°C° 0 mm 5 m/s 746 mmHg 32%
    14:00 +30°C° 0 mm 4 m/s 746 mmHg 31%
    15:00 +29°C° 0 mm 4 m/s 746 mmHg 34%
    16:00 +28°C° 0 mm 3 m/s 746 mmHg 36%
    17:00 +28°C° 0 mm 3 m/s 746 mmHg 39%
    18:00 +26°C° 0 mm 2 m/s 746 mmHg 48%
    19:00 +23°C° 0 mm 2 m/s 746 mmHg 57%
    20:00 +20°C° 0 mm 2 m/s 746 mmHg 66%
    21:00 +20°C° 0 mm 2 m/s 746 mmHg 67%
    22:00 +20°C° 0 mm 2 m/s 746 mmHg 68%
    23:00 +19°C° 0 mm 2 m/s 746 mmHg 69%

    25 Julho, Quinta-feira

    Tempo Temperatura Precipitação Vento Pressão Humidade
    00:00 +19°C° 0 mm 2 m/s 746 mmHg 70%
    01:00 +19°C° 0 mm 3 m/s 746 mmHg 72%
    02:00 +19°C° 0 mm 3 m/s 746 mmHg 73%
    03:00 +19°C° 0 mm 3 m/s 746 mmHg 74%
    04:00 +18°C° 0 mm 3 m/s 746 mmHg 75%
    05:00 +18°C° 0 mm 3 m/s 746 mmHg 76%
    06:00 +20°C° 0 mm 3 m/s 746 mmHg 70%
    07:00 +22°C° 0 mm 3 m/s 747 mmHg 64%
    08:00 +25°C° 0 mm 3 m/s 747 mmHg 57%
    09:00 +26°C° 0 mm 3 m/s 747 mmHg 52%
    10:00 +28°C° 0 mm 4 m/s 747 mmHg 47%
    11:00 +29°C° 0 mm 4 m/s 747 mmHg 41%
    12:00 +29°C° 0 mm 4 m/s 747 mmHg 42%
    13:00 +29°C° 0 mm 4 m/s 746 mmHg 42%
    14:00 +29°C° 0 mm 4 m/s 746 mmHg 43%
    15:00 +28°C° 0 mm 4 m/s 746 mmHg 45%
    16:00 +28°C° 0 mm 3 m/s 746 mmHg 48%
    17:00 +28°C° 0 mm 3 m/s 745 mmHg 50%
    18:00 +26°C° 0 mm 2 m/s 745 mmHg 57%
    19:00 +25°C° 0 mm 2 m/s 745 mmHg 63%
    20:00 +24°C° 0 mm 1 m/s 745 mmHg 69%
    21:00 +23°C° 0 mm 2 m/s 746 mmHg 66%
    22:00 +23°C° 0 mm 2 m/s 746 mmHg 64%
    23:00 +21°C° 0 mm 2 m/s 746 mmHg 61%

    26 Julho, Sexta-feira

    Tempo Temperatura Precipitação Vento Pressão Humidade
    00:00 +21°C° 0 mm 2 m/s 745 mmHg 62%
    01:00 +21°C° 0 mm 2 m/s 745 mmHg 62%
    02:00 +20°C° 0 mm 3 m/s 745 mmHg 62%
    03:00 +20°C° 0 mm 3 m/s 745 mmHg 63%
    04:00 +20°C° 0 mm 3 m/s 745 mmHg 65%
    05:00 +19°C° 0 mm 3 m/s 745 mmHg 67%
    06:00 +21°C° 0 mm 4 m/s 745 mmHg 62%
    07:00 +22°C° 0 mm 4 m/s 745 mmHg 58%
    08:00 +25°C° 0 mm 5 m/s 745 mmHg 54%
    09:00 +26°C° 0 mm 5 m/s 745 mmHg 51%
    10:00 +28°C° 0 mm 6 m/s 745 mmHg 48%
    11:00 +29°C° 0 mm 6 m/s 745 mmHg 45%
    12:00 +29°C° 0 mm 6 m/s 745 mmHg 45%
    13:00 +29°C° 0 mm 6 m/s 745 mmHg 45%
    14:00 +29°C° 0 mm 6 m/s 744 mmHg 44%
    15:00 +28°C° 0 mm 5 m/s 744 mmHg 47%
    16:00 +28°C° 0 mm 4 m/s 744 mmHg 50%
    17:00 +27°C° 0 mm 3 m/s 744 mmHg 52%
    18:00 +26°C° 0 mm 2 m/s 744 mmHg 58%
    19:00 +25°C° 0 mm 2 m/s 744 mmHg 63%
    20:00 +23°C° 0 mm 1 m/s 744 mmHg 69%
    21:00 +23°C° 0 mm 1 m/s 744 mmHg 70%
    22:00 +21°C° 0 mm 2 m/s 744 mmHg 71%
    23:00 +21°C° 0 mm 2 m/s 744 mmHg 72%

    27 Julho, Sábado

    Tempo Temperatura Precipitação Vento Pressão Humidade
    00:00 +21°C° 0 mm 3 m/s 744 mmHg 74%
    01:00 +20°C° 0 mm 3 m/s 744 mmHg 77%
    02:00 +19°C° 0 mm 3 m/s 744 mmHg 79%
    03:00 +19°C° 0 mm 3 m/s 744 mmHg 83%
    04:00 +18°C° 0 mm 3 m/s 744 mmHg 87%
    05:00 +18°C° 0 mm 3 m/s 743 mmHg 91%
    06:00 +20°C° 0 mm 4 m/s 744 mmHg 83%
    07:00 +22°C° 0 mm 4 m/s 744 mmHg 74%
    08:00 +25°C° 0 mm 4 m/s 744 mmHg 66%
    09:00 +26°C° 0 mm 4 m/s 744 mmHg 61%
    10:00 +27°C° 0 mm 4 m/s 744 mmHg 55%
    11:00 +29°C° 0 mm 4 m/s 744 mmHg 50%
    12:00 +29°C° 0 mm 4 m/s 744 mmHg 51%
    13:00 +29°C° 0 mm 4 m/s 743 mmHg 52%
    14:00 +28°C° 0 mm 4 m/s 743 mmHg 53%
    15:00 +28°C° 0 mm 4 m/s 743 mmHg 55%
    16:00 +28°C° 0 mm 4 m/s 743 mmHg 57%
    17:00 +27°C° 0 mm 4 m/s 742 mmHg 59%
    18:00 +26°C° 0 mm 3 m/s 742 mmHg 66%
    19:00 +24°C° 0 mm 2 m/s 742 mmHg 74%
    20:00 +22°C° 0 mm 1 m/s 742 mmHg 81%
    21:00 +22°C° 0 mm 1 m/s 742 mmHg 83%
    22:00 +21°C° 0 mm 1 m/s 742 mmHg 84%
    23:00 +21°C° 0 mm 1 m/s 742 mmHg 86%
    Mostrar mais